Location: Brotuna
(46.2000°N, 22.6000°E)
Time: 01:52:01
(UTC+00:00)

Cosmos 1763 Rocket - Pass Details

Date: 09 April 2020
Orbit: 734 x 779 km, 74.0° (Epoch: 03 June)

Event Time Altitude Azimuth Distance (km) Brightness Sun altitude
Rises 19:43:15 0° 336° (NNW) 3,224 7.9 -24.2°
Reaches altitude 10° 19:45:39 10° 334° (NNW) 2,287 6.9 -24.5°
Maximum altitude 19:50:48 69° 252° (WSW) 800 3.6 -25.1°
Enters shadow 19:51:28 61° 206° (SSW) 847 3.5 -25.2°
